Location: Central Coast
(33.3208°S, 151.2336°E)
Time: 23:31:35
(UTC+11:00)

N. Korean satellite - Pass Details

Date: 14 October 2017
Orbit: 459 x 517 km, 97.2° (Epoch: 18 October)

Event Time Altitude Azimuth Distance (km) Brightness Sun altitude
Rises 19:52:45 0° 174° (S) 2,671 10.5 -10.1°
Reaches altitude 10° 19:54:53 10° 177° (S) 1,772 9.6 -10.5°
Maximum altitude 19:58:40 59° 256° (WSW) 603 7.4 -11.3°
Drops below altitude 10° 20:02:21 10° 336° (NNW) 1,728 9.4 -12.0°
Sets 20:04:25 0° 340° (NNW) 2,597 10.3 -12.4°
